CW1663 Weather Reports


Display with metric or nautical units.
time (UTC)temp
F
wind
direction
speed
MPH
gust
MPH
rain 1hr
in
rain 24hr
in
rain mn
in
humidity
%
barometer
mb
20260509092305 62 126 4.0 7.0 0.00 0.01 0.00 68 1017.3
20260509091303 62 349 3.0 8.0 0.00 0.01 0.00 69 1017.5
20260509090304 62 48 6.0 10.0 0.00 0.01 0.00 69 1017.5
20260509085804 61 47 2.0 7.0 0.00 0.01 0.00 70 1017.5
20260509085306 61 55 2.0 6.0 0.00 0.01 0.00 70 1017.3
20260509083804 61 56 3.0 7.0 0.00 0.01 0.00 71 1017.2
20260509082307 60 81 2.0 5.0 0.00 0.01 0.00 74 1017.2
20260509081804 59 16 2.0 7.0 0.00 0.01 0.00 74 1017.2
20260509081304 59 75 3.0 9.0 0.00 0.01 0.00 75 1017.2
20260509080804 59 50 3.0 6.0 0.00 0.01 0.00 75 1017.2
20260509075804 58 36 2.0 7.0 0.00 0.01 0.00 77 1017.4
20260509074304 57 75 3.0 7.0 0.00 0.01 0.00 79 1017.3
20260509073804 56 40 3.0 6.0 0.00 0.01 0.00 79 1017.3
20260509073304 56 72 4.0 8.0 0.00 0.01 0.00 79 1017.2
20260509072804 56 60 2.0 7.0 0.00 0.01 0.00 80 1017.2
20260509070304 55 61 3.0 9.0 0.00 0.01 0.00 81 1017.1
20260509065804 54 72 3.0 7.0 0.00 0.01 0.00 82 1017.1
20260509064804 54 60 4.0 8.0 0.00 0.01 0.00 82 1017.0
20260509064304 53 79 3.0 7.0 0.00 0.01 0.00 82 1017.2
20260509063804 53 55 3.0 6.0 0.00 0.01 0.00 82 1017.2
20260509061305 52 37 2.0 5.0 0.00 0.01 0.00 83 1017.2
20260509060304 52 42 2.0 3.0 0.00 0.01 0.00 84 1017.2
20260509055804 52 47 1.0 3.0 0.00 0.01 0.00 84 1017.2
20260509054804 51 44 1.0 3.0 0.00 0.01 0.00 85 1017.1
20260509053804 51 40 3.0 5.0 0.00 0.01 0.00 85 1017.0
20260509052307 50 30 1.0 3.0 0.00 0.01 0.00 86 1017.0
20260509051304 50 39 1.0 3.0 0.00 0.01 0.00 86 1017.0
20260509045306 49 50 1.0 3.0 0.00 0.01 0.00 87 1017.0
20260509044804 49 41 2.0 5.0 0.00 0.01 0.00 87 1017.0
20260509043804 48 38 1.0 3.0 0.00 0.01 0.00 86 1017.1
20260509042306 49 42 0.0 2.0 0.00 0.01 0.00 86 1017.0
20260509041804 49 42 1.0 2.0 0.00 0.01 0.00 86 1017.0
20260509041304 49 42 1.0 2.0 0.00 0.01 0.00 86 1017.1
20260509040804 49 41 1.0 3.0 0.00 0.01 0.00 85 1017.1
20260509040304 49 40 1.0 3.0 0.00 0.01 0.00 85 1017.0
20260509031804 49 44 2.0 5.0 0.00 0.01 0.00 84 1017.0
20260509025804 49 49 2.0 6.0 0.00 0.01 0.00 84 1017.1
20260509023804 49 56 2.0 5.0 0.00 0.01 0.00 83 1017.1
20260509023304 49 66 2.0 5.0 0.00 0.01 0.00 82 1017.1
20260509021304 50 43 2.0 5.0 0.00 0.01 0.00 81 1016.9
20260509020805 50 54 3.0 5.0 0.00 0.01 0.00 81 1016.9
20260509020304 50 52 3.0 6.0 0.00 0.01 0.00 81 1017.0
20260509015804 50 43 2.0 5.0 0.00 0.01 0.00 81 1017.0
20260509014804 50 51 2.0 5.0 0.00 0.01 0.00 81 1017.1
20260509013304 50 43 2.0 5.0 0.00 0.01 0.00 81 1017.2
20260509012804 50 38 2.0 5.0 0.00 0.01 0.00 81 1017.2
20260509011304 50 0 0.0 0.0 0.00 0.01 0.00 80 1017.4
20260509010304 50 0 0.0 3.0 0.00 0.01 0.00 80 1017.4
20260509004304 50 41 2.0 3.0 0.00 0.01 0.00 80 1017.4
20260509003804 50 51 2.0 3.0 0.00 0.01 0.00 80 1017.4
20260509002306 50 34 2.0 3.0 0.00 0.01 0.00 80 1017.3
20260509001304 50 46 2.0 3.0 0.00 0.01 0.00 80 1017.5
20260509000304 50 55 2.0 3.0 0.00 0.01 0.00 80 1017.5
20260508233804 50 38 2.0 5.0 0.00 0.01 0.00 79 1017.5
20260508233304 50 38 2.0 3.0 0.00 0.01 0.00 79 1017.6
20260508232804 50 36 2.0 3.0 0.00 0.01 0.00 78 1017.6
20260508232307 50 32 2.0 3.0 0.00 0.01 0.00 78 1017.6
20260508231304 51 20 2.0 3.0 0.00 0.01 0.00 78 1017.6
20260508230813 51 50 1.0 3.0 0.00 0.01 0.00 78 1017.6
20260508230304 51 52 2.0 3.0 0.00 0.01 0.00 78 1017.7
20260508224804 51 46 1.0 3.0 0.00 0.01 0.01 77 1017.7
20260508224304 51 46 1.0 3.0 0.00 0.01 0.01 77 1017.7
20260508221304 51 38 1.0 3.0 0.00 0.01 0.01 77 1017.7
20260508220804 52 39 2.0 3.0 0.00 0.01 0.01 77 1017.7
20260508214804 52 46 0.0 0.0 0.00 0.01 0.01 77 1017.7
20260508212306 53 42 0.0 0.0 0.00 0.01 0.01 75 1017.5
20260508210304 53 97 0.0 0.0 0.01 0.01 0.01 75 1017.5
20260508205804 53 97 0.0 0.0 0.01 0.01 0.01 75 1017.5
20260508205306 53 97 0.0 0.0 0.01 0.01 0.01 75 1017.5
20260508204805 53 98 0.0 0.0 0.01 0.01 0.01 75 1017.5
20260508203804 53 98 0.0 0.0 0.01 0.01 0.01 74 1017.4
20260508202804 54 98 0.0 0.0 0.01 0.01 0.01 74 1017.3
20260508201804 54 99 0.0 0.0 0.01 0.01 0.01 73 1017.2
20260508200804 49 132 0.0 0.0 0.00 0.00 0.00 85 1015.7
20260508200304 49 132 0.0 0.0 0.00 0.00 0.00 85 1015.7
20260508194304 49 132 0.0 0.0 0.00 0.00 0.00 85 1015.7
20260508193804 49 132 0.0 0.0 0.00 0.00 0.00 85 1015.7
20260508191804 49 132 0.0 0.0 0.00 0.00 0.00 85 1015.7
20260508190804 49 132 0.0 0.0 0.00 0.00 0.00 85 1015.7
20260508185804 49 132 0.0 0.0 0.00 0.00 0.00 85 1015.7
20260508184804 49 132 0.0 0.0 0.00 0.00 0.00 85 1015.7
20260508184304 49 132 0.0 0.0 0.00 0.00 0.00 85 1015.7
20260508183804 49 132 0.0 0.0 0.00 0.00 0.00 85 1015.7
20260508182804 49 132 0.0 0.0 0.00 0.00 0.00 85 1015.7
20260508174804 49 132 0.0 0.0 0.00 0.00 0.00 85 1015.7
20260508173804 49 132 0.0 0.0 0.00 0.00 0.00 85 1015.7
20260508173304 49 132 0.0 0.0 0.00 0.00 0.00 85 1015.7
20260508172307 49 132 0.0 0.0 0.00 0.00 0.00 85 1015.7
20260508171804 49 132 0.0 0.0 0.00 0.00 0.00 85 1015.7
20260508170804 49 132 0.0 0.0 0.00 0.00 0.00 85 1015.7
20260508170304 49 132 0.0 0.0 0.00 0.00 0.00 85 1015.7
20260508165306 49 132 0.0 0.0 0.00 0.00 0.00 85 1015.7
20260508164304 49 132 0.0 0.0 0.00 0.00 0.00 85 1015.7
20260508163804 49 132 0.0 0.0 0.00 0.00 0.00 85 1015.7
20260508162306 49 132 0.0 0.0 0.00 0.00 0.00 85 1015.7
20260508155804 49 132 0.0 0.0 0.00 0.00 0.00 85 1015.7
20260508155306 49 132 0.0 0.0 0.00 0.00 0.00 85 1015.7
20260508154304 49 132 0.0 0.0 0.00 0.00 0.00 85 1015.7
20260508153804 49 132 0.0 0.0 0.00 0.00 0.00 85 1015.7
20260508153304 49 132 0.0 0.0 0.00 0.00 0.00 85 1015.7
20260508150804 49 132 0.0 0.0 0.00 0.00 0.00 85 1015.7
20260508144804 49 132 0.0 0.0 0.00 0.00 0.00 85 1015.7
20260508144304 49 132 0.0 0.0 0.00 0.00 0.00 85 1015.7
20260508143804 49 132 0.0 0.0 0.00 0.00 0.00 85 1015.7
20260508142306 49 132 0.0 0.0 0.00 0.00 0.00 85 1015.7
20260508140303 49 132 0.0 0.0 0.00 0.00 0.00 85 1015.7
20260508133304 49 132 0.0 0.0 0.00 0.00 0.00 85 1015.7
20260508130804 49 132 0.0 0.0 0.00 0.00 0.00 85 1015.7
20260508130304 49 132 0.0 0.0 0.00 0.00 0.00 85 1015.7
20260508125306 49 132 0.0 0.0 0.00 0.00 0.00 85 1015.7
20260508123804 49 132 0.0 0.0 0.00 0.00 0.00 85 1015.7
20260508122306 49 132 0.0 0.0 0.00 0.00 0.00 85 1015.7
20260508115306 49 132 0.0 0.0 0.00 0.00 0.00 85 1015.7
20260508114804 49 132 0.0 0.0 0.00 0.00 0.00 85 1015.7
20260508113804 49 132 0.0 0.0 0.00 0.00 0.00 85 1015.7
20260508110304 49 132 0.0 0.0 0.00 0.00 0.00 85 1015.7
20260508104304 49 132 0.0 0.0 0.00 0.00 0.00 85 1015.7
20260508102804 49 132 0.0 0.0 0.00 0.00 0.00 85 1015.7
20260508102306 49 132 0.0 0.0 0.00 0.00 0.00 85 1015.7
20260508095804 49 132 0.0 0.0 0.00 0.00 0.00 85 1015.7
20260508094804 49 132 0.0 0.0 0.00 0.00 0.00 85 1015.7
20260508094304 49 132 0.0 0.0 0.00 0.00 0.00 85 1015.7
20260508092804 49 132 0.0 0.0 0.00 0.00 0.00 85 1015.7